Location: Saint-Restitut
(44.3351°N, 4.7915°E)
Time: 16:11:51
(UTC+00:00)

CSL-04 Debris - Pass Details

Date: 25 February 2024
Orbit: 824 x 843 km, 98.8° (Epoch: 21 April)

Event Time Altitude Azimuth Distance (km) Brightness Sun altitude
Exits shadow 19:49:54 34° 187° (S) 1,335 5.1 -26.9°
Maximum altitude 19:52:13 65° 258° (WSW) 905 4.4 -27.3°
Drops below altitude 10° 19:57:34 10° 340° (NNW) 2,435 7.0 -28.2°
Sets 19:59:57 0° 344° (NNW) 3,371 7.7 -28.6°
